星链-31049 (STARLINK-31049 )

导读

STARLINK-31049是美国SpaceX星链互联网卫星星座中的一颗卫星,于2023年12月8日发射入轨。星链星座旨在为全球提供低延迟、高速率的宽带互联网服务,该卫星是星链大规模组网部署中的组成部分,承担卫星互联网信号转发任务,服务全球用户的互联网接入需求。

基本信息
目录编号:
58543
目录名称:
STARLINK-31049
国际标识:
2023-192N
轨道中心:
EARTH
卫星名称:
星链-31049
卫星全名:
星链-31049 (STARLINK-31049 )
卫星状态:
在轨 (已飞行923 天)
发射日期:
2023-12-08 UTC
国别 :
美国 (US)
星等 :
--
轨道信息
数据来源 国际轨道数据
星历时间: 2026-06-18T00:12:48+0800
15小时前
查看轨道信息
半长轴: 6840.889km
偏心率: 0.0001349
轨道倾角: 53.161°
近地点辐角 93.210°
升交点赤经 316.903°
平近点角 266.905°
近地点: 461.829km
远地点: 463.675km
周期: 93.849分钟
每日圈数: 15.343838
详细信息
固有亮度:
5
最大亮度:
0.3
卫星平台:
Starlink v2.0 mini
覆盖范围:
全球
运营商:
太空探索技术公司
运营商所在国:
美国
制造商(研发单位):
太空探索技术公司
制造商所在国:
美国
使用方式:
暂无
卫星简介
星链(Starlink)计划是由太空探索技术公司(SpaceX)提出的一个巨型低轨卫星互联网星座项目,计划在2019年至2024年间在太空搭建由约1.2万颗卫星组成的“星链”网络,其中1584颗将部署在地球上空550千米处的近地轨道,并从2020年开始工作。该卫星仍在工作。
2D轨道图
3D轨道图
轨道高度分析图
轨道倾角分析图
轨道综合分析图
查看轨道综合分析图